Location: Newark
(29.9790°N, 31.1340°E)
Time: 20:21:07
(UTC+00:00)

Transit 2A Rocket - Pass Details

Date: 23 January 2020
Orbit: 591 x 912 km, 66.7° (Epoch: 23 February)

Event Time Altitude Azimuth Distance (km) Brightness Sun altitude
Rises 02:06:31 0° 170° (S) 2,905 - -35.3°
Reaches altitude 10° 02:09:23 10° 152° (SSE) 1,962 - -34.6°
Exits shadow 02:10:50 15° 134° (SE) 1,624 7.1 -34.3°
Maximum altitude 02:12:24 18° 108° (ESE) 1,471 7.1 -34.0°
Drops below altitude 10° 02:15:21 10° 64° (ENE) 1,923 7.7 -33.4°
Sets 02:18:07 0° 45° (NE) 2,823 8.4 -32.8°
